CZ-6A DEB, 61112

Orbit data source: Space-Track

CZ-6A DEB, 61112 is space debris in LEO originally from a launch on Tue, 06 Aug 2024 UTC launched from the Taiyaun Space Center, China (TSC). Debris objects in space refer to the collection of defunct objects orbiting the Earth. Examples of debris include non-operational satellites, rocket bodies, and fragments generated from explosions, collisions, or faulty payload assembly.

Loading next visibility...
Identifier
61112, 2024-140PE
Orbit
LEO
Country
Flag of CNCN / PRC
Related business
Manufacturer
SAST
Mission
Spacecraft
Bus & Motor
Unknown
Mass
Unknown
Launch date (UTC)
2024-08-06 (2 years ago)
Launch vehicle
Unknown
Launch site
Taiyaun Space Center, China (TSC)
Object type
Payload
Rocket body
Debris
Shape & HBR
Unknown shape, 0.1 m
Radar Cross Section
Small (<0.1 m²)

Expand to show TLE details & history
Last TLE update: 17 hours ago

TLE from 17 hours ago
0 CZ-6A DEB
1 61112U 24140PE  26171.27854374  .00003376  00000-0  73776-3 0  9991
2 61112  89.0325 272.9980 0063241 225.8417 133.7585 14.56367570 96812
Epoch: 2026-06-20T06:41Z
TLE epoch observation values (Epoch: 2026-06-20T06:41:06.179Z)
Latitude
-0.00002°
Longitude
-95.7732°
Altitude
739.166 km
Speed
7.469 km/s
True Right ascension
18h 11m 59s
True Declination
0° 00' 00"
Sunlit
Object was in full shadow at epoch
Visualization orbit readout
Latitude
Unknown
Longitude
Unknown
Altitude
Unknown
Speed
Unknown
Apparent Right ascension
Unknown
Apparent Declination
Unknown
Sunlit
N/A
Visualization observer readout
Local Sidereal Time
10:20:30
Azimuth
Unknown
Elevation
Unknown
Doppler factor
Unknown
Orbital elements
Apogee altitude
746.6 km
Perigee altitude
657.052 km
Semi-major axis
7,079.963 km
Eccentricity
0.00632
Inclination
89.0325°
RAAN
272.998°
Arg. of periapsis
225.8417°
True anomaly
134.27906°
Mean anomaly
133.7585°
Eccentric anomaly
134.01906°
Mean motion
3.64331 °/min
Orbital period
98.81 mins
BSTAR
0.00073776
Loading maneuver chart data...
Computing Atmospheric mass density...
Loading historical data...
Loading historical data...
Loading historical data...
Loading historical data...
Loading historical data...
Loading historical data...
Loading historical data...

Documentation

Showing up to 5 results
|